Overview Statistics Trail Chart Weather Telemetry Raw packets
 

This is the latest recevied weather packets stored in our database for station/object KY0TEQ-13. If no packets are shown the sender has not sent any weather packets the latest 10 day(s).

<< 65 66 67 68 69 70 71 >>
Time Temp. Humidity Pressure Rain* Wind** Luminosity Snow
1788228477 13.33° C 82% 1310 hPa 0 mm - 0 W/m² -
1788228172 13.33° C 82% 1310 hPa 0 mm - 0 W/m² -
1788227872 13.89° C 82% 1310.1 hPa 0 mm - 0 W/m² -
1788227568 13.89° C 81% 1310 hPa 0 mm - 0 W/m² -
1788227267 13.89° C 80% 1310.1 hPa 0 mm - 1 W/m² -
1788226963 13.89° C 79% 1310.4 hPa 0 mm - 2 W/m² -
1788226658 14.44° C 78% 1310.4 hPa 0 mm - 3 W/m² -
1788226354 14.44° C 78% 1310.2 hPa 0 mm - 6 W/m² -
1788226049 14.44° C 78% 1310.2 hPa 0 mm - 11 W/m² -
1788225744 14.44° C 79% 1310.6 hPa 0 mm - 15 W/m² -
1788225440 15° C 78% 1310.4 hPa 0 mm - 17 W/m² -
1788225140 15° C 76% 1310.5 hPa 0 mm - 19 W/m² -
1788224834 15.56° C 76% 1310.2 hPa 0 mm - 21 W/m² -
1788224529 15.56° C 75% 1310 hPa 0 mm - 32 W/m² -
1788224222 15.56° C 73% 1309.9 hPa 0 mm - 36 W/m² -
1788223917 15.56° C 72% 1310.2 hPa 0 mm - 29 W/m² -
1788223617 15.56° C 72% 1310.4 hPa 0 mm - 32 W/m² -
1788223311 15.56° C 71% 1310.5 hPa 0 mm - 35 W/m² -
1788223006 15.56° C 73% 1310.2 hPa 0 mm - 56 W/m² -
1788222706 15.56° C 72% 1310.2 hPa 0 mm - 56 W/m² -
1788222399 15.56° C 72% 1310.4 hPa 0 mm - 68 W/m² -
1788222094 15.56° C 72% 1310.5 hPa 0 mm - 63 W/m² -
1788221789 15.56° C 73% 1310.4 hPa 0 mm - 74 W/m² -
1788221484 15.56° C 74% 1310.5 hPa 0 mm - 81 W/m² -
1788221175 15.56° C 75% 1310.5 hPa 1.78 mm - 78 W/m² -

* Rain latest hour (hover to see other rain measurements)
** Current wind speed in m/s (hover to see current wind gust speed)